SCP
0 0 0 0 0 0 0 0 0 0 0 0 0 0 0 0 0 0 0 -0 -0 -0 -0 -0 -0 -0 -0 -0 -0 -0 -0 -0
0 0 0 0 0 0 0 0 0 0 0 0 0 0 0 0 0 0 0 0 0 0 0 0 -0 -0 -0 -0 -0 -0 -0 0
0 0 0 0 0 0 0 0 0 0 0 0 0 0 0 0 0 0 0 0 0 0 0 0 -0 -0 0 -0 0 0 0 0
0 0 0 0 0 0 0 0 0 0 0 0 0 0 0 0 0 0 0 0 0 0 0 0 0 -0 -0 0 0 -0 0 0
0 0 0 0 0 0 0 0 0 0 0 0 0 0 0 0 0 0 1 1 0 0 0 0 0 0 0 -0 -0 -0 0 0
0 0 0 0 0 0 0 0 0 0 0 0 0 0 0 0 0 0 1 1 1 1 0 0 0 0 0 0 -0 -0 -0 -0
0 0 0 0 0 0 0 0 0 0 0 0 0 0 0 0 0 0 1 1 1 1 1 0 0 0 0 0 0 0 -0 -0
0 0 0 0 0 0 0 0 0 0 0 0 0 0 0 0 0 0 1 1 1 1 1 1 1 1 0 0 0 0 0 0
0 0 0 0 0 0 0 0 0 0 0 0 0 0 0 0 0 0 0 1 1 1 2 1 1 2 1 1 1 1 0 0
0 0 0 0 0 0 0 0 0 0 0 0 0 0 0 0 0 0 0 1 1 1 2 2 2 2 2 2 1 1 1 1
0 0 0 0 0 0 0 0 0 0 0 0 0 0 0 0 0 0 0 0 1 1 2 3 3 3 3 2 2 2 2 1
0 0 0 0 0 0 0 0 0 0 0 0 0 0 0 0 0 0 0 0 1 1 3 4 3 3 4 4 3 2 2 1
0 0 0 0 0 0 0 0 0 0 0 0 0 0 0 0 0 0 0 1 1 1 2 3 3 3 4 3 3 3 2 2
0 0 0 0 0 0 0 0 0 0 0 0 0 0 0 0 0 0 0 1 1 1 1 2 2 4 4 3 2 2 2 2
0 0 0 0 0 0 0 0 0 0 0 0 0 0 0 0 0 0 0 0 1 1 1 1 2 2 3 3 2 2 3 5
0 0 0 0 0 0 0 0 0 0 0 0 0 0 0 0 0 0 0 0 1 1 2 2 2 2 2 2 1 1 2 2
0 0 0 0 0 0 0 0 0 0 0 0 0 0 0 0 0 0 0 0 0 1 2 3 3 3 3 3 2 1 2 2
0 0 0 0 0 0 0 0 0 0 0 0 0 0 0 0 0 0 0 0 0 1 2 3 5 6 5 4 3 2 1 1
0 0 0 0 0 0 0 0 0 0 0 0 0 0 0 0 0 0 0 0 0 1 1 2 3 6 6 7 7 5 3 3
0 0 0 0 -0 0 0 0 0 0 0 0 0 0 0 0 0 0 0 0 0 0 1 2 3 3 4 7 7 7 7 5
Wind_Speed_500mb
3 5 15 9 12 3 3 14 5 5 9 7 5 7 15 25 34 52 59 56 53 50 48 47 54 56 54 50 43 41 43 41
7 12 5 5 6 11 9 7 13 5 8 3 9 2 11 31 26 51 59 57 53 50 48 50 55 58 56 51 47 47 46 43
4 6 5 4 12 9 5 2 13 6 6 4 11 8 11 25 19 50 59 58 55 52 50 50 54 56 55 53 51 49 45 42
18 7 4 4 4 9 6 9 13 13 6 4 6 10 11 17 21 45 54 58 58 55 51 51 52 54 54 52 48 44 43 41
6 6 5 5 2 3 9 8 8 4 8 3 6 10 10 13 21 49 54 57 59 59 55 52 51 51 50 50 46 42 39 36
9 11 7 1 3 6 20 5 17 3 5 8 11 11 20 21 27 51 57 60 64 64 62 59 56 53 50 46 45 45 42 39
17 13 5 2 6 4 15 9 23 15 11 11 13 17 22 28 37 54 60 65 68 69 70 67 63 59 54 50 47 45 44 42
6 8 7 4 8 14 11 17 14 15 20 25 18 28 30 33 40 54 60 65 71 75 75 71 68 64 60 57 54 51 48 44
10 18 14 9 12 8 11 19 11 16 31 25 27 35 41 39 37 35 54 62 68 70 73 73 72 70 66 63 60 56 53 50
11 15 16 24 12 9 18 31 31 33 35 34 31 34 46 39 47 45 41 56 60 66 74 78 80 78 74 71 66 61 58 54
19 22 24 24 23 19 16 30 25 24 26 27 28 27 40 50 54 53 48 53 61 64 74 83 85 82 80 76 73 69 65 61
13 22 17 16 27 8 10 27 31 26 23 22 27 35 40 52 55 59 53 48 52 61 72 78 87 85 86 84 82 78 71 65
19 12 12 13 22 15 18 16 23 22 25 23 20 24 42 46 62 56 50 52 48 50 68 77 75 80 86 85 84 77 67 57
3 6 8 15 27 19 10 3 12 17 20 23 22 20 21 40 58 68 59 61 57 56 53 68 74 79 84 88 76 61 59 44
12 8 4 11 2 9 12 5 11 15 20 23 23 21 21 28 50 66 67 62 61 61 60 64 72 73 78 78 71 74 77 82
12 3 3 17 21 23 25 12 16 15 20 22 26 28 25 27 38 50 61 64 66 69 64 63 68 72 77 71 75 80 78 79
19 20 11 22 21 25 25 19 23 22 14 21 25 19 22 25 33 58 67 75 74 77 68 72 74 77 77 77 80 85 85 83
19 21 12 21 24 20 21 24 26 24 23 26 26 24 24 30 27 27 65 85 86 89 84 82 78 75 75 73 79 82 83 75
14 9 9 14 22 21 17 19 25 32 33 31 28 40 38 35 30 28 26 45 89 89 87 85 81 80 78 76 78 75 72 70
19 11 21 5 21 21 18 23 20 27 27 30 38 35 39 43 42 45 35 31 33 73 87 87 85 85 87 88 86 77 78 78
Wind_Direction_500mb
182 158 208 155 183 123 358 28 89 111 53 9 18 27 129 154 172 177 181 178 180 182 182 182 179 179 178 176 176 172 164 159
237 183 209 159 143 351 339 89 61 103 72 15 5 166 150 166 171 177 181 181 182 183 182 180 179 180 180 181 178 170 165 162
236 205 179 241 315 331 299 353 93 91 70 43 22 103 147 175 169 182 182 183 183 184 183 180 177 176 178 178 175 173 171 169
226 228 188 233 279 294 195 181 130 86 93 10 38 85 121 170 181 183 185 185 185 185 187 183 179 176 176 177 178 178 178 177
198 252 279 195 22 10 301 216 79 114 123 158 129 155 145 170 189 184 187 189 188 187 189 189 185 182 181 182 183 185 186 186
207 220 238 53 77 113 30 348 342 204 200 180 199 198 179 175 187 187 191 194 192 192 191 192 191 189 189 192 192 191 192 194
214 192 181 121 16 140 332 313 335 337 309 290 230 210 211 189 187 191 196 198 198 198 196 195 196 195 196 198 202 202 201 202
217 206 226 231 315 335 311 303 296 308 353 341 253 218 228 215 198 197 204 205 204 203 202 200 201 202 202 202 205 207 208 210
223 234 263 269 280 266 284 289 252 294 306 308 304 233 215 218 227 222 210 213 212 212 211 208 208 209 209 209 210 211 214 215
229 231 257 269 281 272 254 265 277 280 286 288 287 255 231 222 231 224 225 219 218 217 218 217 215 214 214 214 214 217 219 220
242 248 255 265 259 256 256 279 287 286 286 274 266 255 249 247 232 229 224 219 221 221 222 223 222 220 220 220 220 219 220 224
261 247 239 244 266 196 248 291 285 291 294 295 266 248 247 250 240 236 229 219 222 228 229 231 228 225 226 225 225 224 224 226
241 244 243 194 259 244 258 275 277 288 293 300 304 274 244 242 241 241 229 232 242 244 240 237 237 232 234 234 233 232 232 233
175 199 249 203 263 274 268 311 295 314 314 302 298 293 280 253 242 240 240 248 241 238 241 242 235 234 236 236 235 233 247 251
284 205 235 220 297 310 296 280 292 315 321 315 307 294 268 257 247 238 244 246 250 245 243 239 236 235 240 239 234 229 227 229
253 111 211 282 287 286 280 279 291 295 305 306 306 304 289 264 244 247 245 242 245 244 243 239 235 235 237 235 232 233 240 232
277 278 303 283 282 279 282 290 288 292 278 295 297 302 300 290 267 238 235 240 242 240 238 236 234 233 233 233 230 230 233 235
284 278 205 276 272 269 272 278 276 285 273 274 274 279 287 303 302 280 242 236 237 234 235 234 235 236 234 234 230 228 229 229
259 314 236 278 272 261 249 247 259 265 280 285 278 295 298 292 287 294 294 259 239 237 238 235 236 234 234 231 226 222 223 226
259 264 277 231 285 264 257 250 252 264 262 263 286 296 303 302 291 287 281 269 263 246 245 245 243 237 236 233 228 226 230 227
Wind_Speed_850mb
3 5 15 9 12 3 3 14 5 5 9 7 5 7 15 25 34 52 59 56 53 50 48 47 54 56 54 50 43 41 43 41
7 12 5 5 6 11 9 7 13 5 8 3 9 2 11 31 26 51 59 57 53 50 48 50 55 58 56 51 47 47 46 43
4 6 5 4 12 9 5 2 13 6 6 4 11 8 11 25 19 50 59 58 55 52 50 50 54 56 55 53 51 49 45 42
18 7 4 4 4 9 6 9 13 13 6 4 6 10 11 17 21 45 54 58 58 55 51 51 52 54 54 52 48 44 43 41
6 6 5 5 2 3 9 8 8 4 8 3 6 10 10 13 21 49 54 57 59 59 55 52 51 51 50 50 46 42 39 36
9 11 7 1 3 6 20 5 17 3 5 8 11 11 20 21 27 51 57 60 64 64 62 59 56 53 50 46 45 45 42 39
17 13 5 2 6 4 15 9 23 15 11 11 13 17 22 28 37 54 60 65 68 69 70 67 63 59 54 50 47 45 44 42
6 8 7 4 8 14 11 17 14 15 20 25 18 28 30 33 40 54 60 65 71 75 75 71 68 64 60 57 54 51 48 44
10 18 14 9 12 8 11 19 11 16 31 25 27 35 41 39 37 35 54 62 68 70 73 73 72 70 66 63 60 56 53 50
11 15 16 24 12 9 18 31 31 33 35 34 31 34 46 39 47 45 41 56 60 66 74 78 80 78 74 71 66 61 58 54
19 22 24 24 23 19 16 30 25 24 26 27 28 27 40 50 54 53 48 53 61 64 74 83 85 82 80 76 73 69 65 61
13 22 17 16 27 8 10 27 31 26 23 22 27 35 40 52 55 59 53 48 52 61 72 78 87 85 86 84 82 78 71 65
19 12 12 13 22 15 18 16 23 22 25 23 20 24 42 46 62 56 50 52 48 50 68 77 75 80 86 85 84 77 67 57
3 6 8 15 27 19 10 3 12 17 20 23 22 20 21 40 58 68 59 61 57 56 53 68 74 79 84 88 76 61 59 44
12 8 4 11 2 9 12 5 11 15 20 23 23 21 21 28 50 66 67 62 61 61 60 64 72 73 78 78 71 74 77 82
12 3 3 17 21 23 25 12 16 15 20 22 26 28 25 27 38 50 61 64 66 69 64 63 68 72 77 71 75 80 78 79
19 20 11 22 21 25 25 19 23 22 14 21 25 19 22 25 33 58 67 75 74 77 68 72 74 77 77 77 80 85 85 83
19 21 12 21 24 20 21 24 26 24 23 26 26 24 24 30 27 27 65 85 86 89 84 82 78 75 75 73 79 82 83 75
14 9 9 14 22 21 17 19 25 32 33 31 28 40 38 35 30 28 26 45 89 89 87 85 81 80 78 76 78 75 72 70
19 11 21 5 21 21 18 23 20 27 27 30 38 35 39 43 42 45 35 31 33 73 87 87 85 85 87 88 86 77 78 78
Wind_Direction_850mb
182 158 208 155 183 123 358 28 89 111 53 9 18 27 129 154 172 177 181 178 180 182 182 182 179 179 178 176 176 172 164 159
237 183 209 159 143 351 339 89 61 103 72 15 5 166 150 166 171 177 181 181 182 183 182 180 179 180 180 181 178 170 165 162
236 205 179 241 315 331 299 353 93 91 70 43 22 103 147 175 169 182 182 183 183 184 183 180 177 176 178 178 175 173 171 169
226 228 188 233 279 294 195 181 130 86 93 10 38 85 121 170 181 183 185 185 185 185 187 183 179 176 176 177 178 178 178 177
198 252 279 195 22 10 301 216 79 114 123 158 129 155 145 170 189 184 187 189 188 187 189 189 185 182 181 182 183 185 186 186
207 220 238 53 77 113 30 348 342 204 200 180 199 198 179 175 187 187 191 194 192 192 191 192 191 189 189 192 192 191 192 194
214 192 181 121 16 140 332 313 335 337 309 290 230 210 211 189 187 191 196 198 198 198 196 195 196 195 196 198 202 202 201 202
217 206 226 231 315 335 311 303 296 308 353 341 253 218 228 215 198 197 204 205 204 203 202 200 201 202 202 202 205 207 208 210
223 234 263 269 280 266 284 289 252 294 306 308 304 233 215 218 227 222 210 213 212 212 211 208 208 209 209 209 210 211 214 215
229 231 257 269 281 272 254 265 277 280 286 288 287 255 231 222 231 224 225 219 218 217 218 217 215 214 214 214 214 217 219 220
242 248 255 265 259 256 256 279 287 286 286 274 266 255 249 247 232 229 224 219 221 221 222 223 222 220 220 220 220 219 220 224
261 247 239 244 266 196 248 291 285 291 294 295 266 248 247 250 240 236 229 219 222 228 229 231 228 225 226 225 225 224 224 226
241 244 243 194 259 244 258 275 277 288 293 300 304 274 244 242 241 241 229 232 242 244 240 237 237 232 234 234 233 232 232 233
175 199 249 203 263 274 268 311 295 314 314 302 298 293 280 253 242 240 240 248 241 238 241 242 235 234 236 236 235 233 247 251
284 205 235 220 297 310 296 280 292 315 321 315 307 294 268 257 247 238 244 246 250 245 243 239 236 235 240 239 234 229 227 229
253 111 211 282 287 286 280 279 291 295 305 306 306 304 289 264 244 247 245 242 245 244 243 239 235 235 237 235 232 233 240 232
277 278 303 283 282 279 282 290 288 292 278 295 297 302 300 290 267 238 235 240 242 240 238 236 234 233 233 233 230 230 233 235
284 278 205 276 272 269 272 278 276 285 273 274 274 279 287 303 302 280 242 236 237 234 235 234 235 236 234 234 230 228 229 229
259 314 236 278 272 261 249 247 259 265 280 285 278 295 298 292 287 294 294 259 239 237 238 235 236 234 234 231 226 222 223 226
259 264 277 231 285 264 257 250 252 264 262 263 286 296 303 302 291 287 281 269 263 246 245 245 243 237 236 233 228 226 230 227